Weather History for KPTK - January, 2013

Change the Weather History Date:

Thursday, January 24, 2013

  Actual Average Record
Temperature  
Mean Temperature 11 °F -  
Max Temperature 16 °F 27 °F 42 °F (2002)
Min Temperature 6 °F 13 °F -2 °F (2004)
Degree Days  
Heating Degree Days 54    
Moisture  
Dew Point 4 °F    
Average Humidity 76    
Maximum Humidity 92    
Minimum Humidity 45    
Precipitation  
Precipitation 0.00 in - - ()
Snow  
Snow 0.00 in - - ()
Snow Depth 1.00 in    
Sea Level Pressure  
Sea Level Pressure 30.36 in    
Wind  
Wind Speed 8 mph (NNW)    
Max Wind Speed 14 mph    
Max Gust Speed 21 mph    
Visibility 7 miles    
Events Snow    
Averages and records for this station are not official NWS values.
T = Trace of Precipitation, MM = Missing Value Source: NWS Daily Summary

Daily Weather History Graph

Daily Weather History Graph

Search for Another Location

Airport or City:

Trip Planner

Search our weather history database for the weather conditions in past years. The results will help you decide how hot, cold, wet, or windy it might be!

Date:

Astronomy

Jan. 24, 2013 Rise Set
Actual Time 7:55 AM EST 5:37 PM EST
Civil Twilight 7:24 AM EST 6:07 PM EST
Nautical Twilight 6:50 AM EST 6:41 PM EST
Astronomical Twilight 6:16 AM EST 7:15 PM EST
Moon 3:37 PM EST (1/24) 5:52 AM EST (1/24)
Length of Visible Light 10h 42m
Length of Day
9h 41m
Waxing Gibbous, 94% of the Moon is Illuminated
Jan 24
Waxing Gibbous
Jan 26
Full
Feb 3
Last Quarter
Feb 10
New
Feb 17
First Quarter

Hourly Weather History & Observations

Time (EST) Temp. Windchill Dew Point Humidity Pressure Visibility Wind Dir Wind Speed Gust Speed Precip Events Conditions
12:07 AM 12.2 °F 2.9 °F 8.6 °F 85% 30.06 in 9.0 mi NW 5.8 mph - 0.00 in   Overcast
12:34 AM 12.2 °F 2.9 °F 8.6 °F 85% 30.07 in 2.0 mi NW 5.8 mph - 0.00 in Snow Light Snow
12:41 AM 12.2 °F 1.7 °F 8.6 °F 85% 30.07 in 1.5 mi NW 6.9 mph - 0.00 in Snow Light Snow
12:53 AM 12.9 °F 3.8 °F 9.0 °F 84% 30.14 in 2.0 mi NNW 5.8 mph - 0.00 in Snow Light Snow
1:10 AM 12.2 °F 1.7 °F 8.6 °F 85% 30.09 in 1.8 mi NNW 6.9 mph - 0.00 in Snow Light Snow
1:19 AM 12.2 °F 1.7 °F 8.6 °F 85% 30.09 in 3.0 mi NNW 6.9 mph - 0.00 in Snow Light Snow
1:36 AM 12.2 °F -1.8 °F 8.6 °F 85% 30.11 in 2.0 mi NNW 11.5 mph - 0.00 in Snow Light Snow
1:40 AM 12.2 °F -0.2 °F 6.8 °F 79% 30.11 in 3.0 mi NNW 9.2 mph - 0.00 in Snow Light Snow
1:53 AM 10.9 °F -1.8 °F 6.1 °F 81% 30.18 in 9.0 mi NNW 9.2 mph - 0.00 in   Scattered Clouds
2:07 AM 10.4 °F -1.5 °F 5.0 °F 79% 30.13 in 10.0 mi NNW 8.1 mph - N/A   Partly Cloudy
2:53 AM 10.0 °F -2.9 °F 5.0 °F 80% 30.23 in 10.0 mi NW 9.2 mph - N/A   Clear
3:53 AM 9.0 °F -5.1 °F 6.1 °F 88% 30.27 in 10.0 mi NW 10.4 mph - N/A   Partly Cloudy
4:40 AM 8.6 °F -7.7 °F 5.0 °F 85% 30.24 in 7.0 mi NW 13.8 mph - N/A   Scattered Clouds
4:49 AM 8.6 °F -7.7 °F 5.0 °F 85% 30.24 in 4.0 mi NW 13.8 mph 20.7 mph N/A   Mostly Cloudy
4:53 AM 9.0 °F -5.1 °F 6.1 °F 88% 30.31 in 3.0 mi NNW 10.4 mph 20.7 mph 0.00 in Snow Light Snow
5:00 AM 8.6 °F -7.0 °F 6.8 °F 92% 30.25 in 2.0 mi NW 12.7 mph 19.6 mph 0.00 in Snow Light Snow
5:07 AM 8.6 °F -7.0 °F 5.0 °F 85% 30.26 in 1.8 mi NW 12.7 mph - 0.00 in Snow Light Snow
5:21 AM 8.6 °F -7.7 °F 5.0 °F 85% 30.27 in 2.5 mi NNW 13.8 mph - 0.00 in Snow Light Snow
5:29 AM 8.6 °F -7.7 °F 5.0 °F 85% 30.28 in 5.0 mi NNW 13.8 mph 20.7 mph 0.00 in Snow Light Snow
5:53 AM 9.0 °F -5.1 °F 3.9 °F 80% 30.36 in 10.0 mi NNW 10.4 mph 20.7 mph 0.00 in   Mostly Cloudy
6:07 AM 8.6 °F -7.7 °F 3.2 °F 79% 30.31 in 4.0 mi NNW 13.8 mph - 0.00 in Snow Light Snow
6:53 AM 7.0 °F -7.5 °F 3.0 °F 84% 30.41 in 6.0 mi NNW 10.4 mph - 0.00 in   Overcast
7:17 AM 6.8 °F -7.8 °F 3.2 °F 85% 30.37 in 7.0 mi NW 10.4 mph - N/A   Scattered Clouds
7:42 AM 6.8 °F -7.8 °F 1.4 °F 79% 30.39 in 3.0 mi NW 10.4 mph - 0.00 in Snow Light Snow
7:43 AM 6.8 °F -7.8 °F 1.4 °F 79% 30.39 in 3.0 mi NW 10.4 mph - 0.00 in Snow Light Snow
7:53 AM 6.1 °F -9.5 °F 3.0 °F 87% 30.47 in 3.0 mi NW 11.5 mph - 0.00 in Snow Light Snow
8:00 AM 6.8 °F -9.3 °F 3.2 °F 85% 30.40 in 2.0 mi NW 12.7 mph - 0.00 in Snow Light Snow
8:42 AM 6.8 °F -9.3 °F 3.2 °F 85% 30.43 in 5.0 mi NNW 12.7 mph - 0.00 in   Scattered Clouds
8:53 AM 7.0 °F -8.3 °F 3.0 °F 84% 30.50 in 10.0 mi NNW 11.5 mph - 0.00 in   Scattered Clouds
9:53 AM 10.0 °F -4.5 °F 3.9 °F 76% 30.53 in 10.0 mi NNW 11.5 mph - N/A   Partly Cloudy
10:53 AM 12.0 °F 0.5 °F 3.9 °F 70% 30.58 in 10.0 mi NW 8.1 mph - N/A   Scattered Clouds
11:53 AM 14.0 °F 3.9 °F 3.9 °F 64% 30.58 in 10.0 mi North 6.9 mph - N/A   Scattered Clouds
12:53 PM 15.1 °F 6.4 °F -0.0 °F 51% 30.57 in 10.0 mi NW 5.8 mph - N/A   Scattered Clouds
1:53 PM 16.0 °F 6.3 °F 1.0 °F 52% 30.56 in 10.0 mi North 6.9 mph - 0.00 in   Scattered Clouds
2:53 PM 16.0 °F 4.4 °F -0.0 °F 49% 30.57 in 10.0 mi WNW 9.2 mph - N/A   Scattered Clouds
3:53 PM 16.0 °F 7.4 °F -2.0 °F 45% 30.57 in 10.0 mi Variable 5.8 mph - N/A   Scattered Clouds
4:53 PM 14.0 °F 5.1 °F -2.9 °F 47% 30.58 in 10.0 mi Variable 5.8 mph - N/A   Scattered Clouds
5:53 PM 12.0 °F 2.7 °F -0.9 °F 56% 30.58 in 10.0 mi NW 5.8 mph - N/A   Partly Cloudy
6:53 PM 10.0 °F 3.6 °F -0.9 °F 61% 30.59 in 10.0 mi NNW 3.5 mph - N/A   Scattered Clouds
7:53 PM 9.0 °F - -0.9 °F 64% 30.57 in 10.0 mi Calm Calm - N/A   Mostly Cloudy
8:53 PM 9.0 °F - -0.0 °F 67% 30.55 in 10.0 mi Calm Calm - N/A   Overcast
9:53 PM 10.0 °F 3.6 °F -0.0 °F 64% 30.54 in 10.0 mi East 3.5 mph - N/A   Overcast
10:53 PM 10.0 °F - 1.9 °F 70% 30.53 in 10.0 mi Calm Calm - N/A   Overcast
11:53 PM 10.9 °F 4.7 °F 1.9 °F 67% 30.52 in 10.0 mi ESE 3.5 mph - N/A   Overcast